TimeEDT,TemperatureF,Dew PointF,Humidity,Sea Level PressureIn,VisibilityMPH,Wind Direction,Wind SpeedMPH,Gust SpeedMPH,PrecipitationIn,Events,Conditions,WindDirDegrees,DateUTC
12:15 AM,71.2,71.2,100,30.03,7.0,Calm,Calm,-,N/A,,Clear,0,2013-09-04 04:15:00
12:35 AM,70.7,70.7,100,30.03,7.0,Calm,Calm,-,N/A,,Clear,0,2013-09-04 04:35:00
12:55 AM,70.5,70.5,100,30.03,5.0,Calm,Calm,-,N/A,,Clear,0,2013-09-04 04:55:00
1:15 AM,70.5,70.5,100,30.03,7.0,Calm,Calm,-,N/A,,Clear,0,2013-09-04 05:15:00
1:35 AM,70.2,70.2,100,30.02,5.0,Calm,Calm,-,N/A,,Clear,0,2013-09-04 05:35:00
1:55 AM,70.2,70.2,100,30.02,5.0,Calm,Calm,-,N/A,,Clear,0,2013-09-04 05:55:00
2:15 AM,69.8,69.8,100,30.01,4.0,Calm,Calm,-,N/A,,Clear,0,2013-09-04 06:15:00
2:35 AM,69.6,69.6,100,30.01,4.0,Calm,Calm,-,N/A,,Clear,0,2013-09-04 06:35:00
2:55 AM,69.1,69.1,100,30.01,5.0,Calm,Calm,-,N/A,,Clear,0,2013-09-04 06:55:00
3:15 AM,68.9,68.9,100,30.01,-9999.0,Calm,Calm,-,N/A,,Unknown,0,2013-09-04 07:15:00
3:35 AM,68.0,68.0,100,30.01,-9999.0,Calm,Calm,-,N/A,,Unknown,0,2013-09-04 07:35:00
3:55 AM,68.4,68.4,100,30.01,-9999.0,Calm,Calm,-,N/A,,Unknown,0,2013-09-04 07:55:00
4:15 AM,68.2,68.2,100,30.01,-9999.0,Calm,Calm,-,N/A,,Unknown,0,2013-09-04 08:15:00
4:35 AM,66.6,66.6,100,30.02,-9999.0,Calm,Calm,-,N/A,,Unknown,0,2013-09-04 08:35:00
4:55 AM,67.1,67.1,100,30.03,-9999.0,Calm,Calm,-,N/A,,Unknown,0,2013-09-04 08:55:00
5:15 AM,66.2,66.2,100,30.03,-9999.0,Calm,Calm,-,N/A,,Unknown,0,2013-09-04 09:15:00
5:35 AM,67.1,67.1,100,30.03,-9999.0,Calm,Calm,-,N/A,,Unknown,0,2013-09-04 09:35:00
5:55 AM,66.2,66.2,100,30.04,-9999.0,Calm,Calm,-,N/A,,Unknown,0,2013-09-04 09:55:00
6:15 AM,66.2,66.2,100,30.04,-9999.0,Calm,Calm,-,N/A,,Overcast,0,2013-09-04 10:15:00
6:35 AM,66.7,66.7,100,30.05,-9999.0,Calm,Calm,-,N/A,,Overcast,0,2013-09-04 10:35:00
6:55 AM,67.3,67.3,100,30.06,-9999.0,Calm,Calm,-,N/A,,Overcast,0,2013-09-04 10:55:00
7:15 AM,68.0,68.0,100,30.07,-9999.0,Calm,Calm,-,N/A,,Overcast,0,2013-09-04 11:15:00
7:35 AM,68.2,68.2,100,30.07,-9999.0,Calm,Calm,-,N/A,,Overcast,0,2013-09-04 11:35:00
7:55 AM,68.7,68.7,100,30.08,-9999.0,Calm,Calm,-,N/A,,Overcast,0,2013-09-04 11:55:00
8:15 AM,69.1,69.1,100,30.09,-9999.0,Calm,Calm,-,N/A,,Overcast,0,2013-09-04 12:15:00
8:35 AM,70.0,70.0,100,30.09,-9999.0,Calm,Calm,-,N/A,,Overcast,0,2013-09-04 12:35:00
8:55 AM,70.5,70.5,100,30.10,-9999.0,Calm,Calm,-,N/A,,Overcast,0,2013-09-04 12:55:00
9:15 AM,70.9,70.9,100,30.10,-9999.0,Calm,Calm,-,N/A,,Overcast,0,2013-09-04 13:15:00
9:35 AM,72.5,72.5,100,30.11,-9999.0,Calm,Calm,-,N/A,,Overcast,0,2013-09-04 13:35:00
9:55 AM,73.0,73.0,100,30.11,-9999.0,Calm,Calm,-,N/A,,Overcast,0,2013-09-04 13:55:00
10:15 AM,74.7,74.3,99,30.12,-9999.0,Calm,Calm,-,N/A,,Unknown,0,2013-09-04 14:15:00
10:35 AM,76.3,74.8,95,30.11,-9999.0,Calm,Calm,-,N/A,,Unknown,0,2013-09-04 14:35:00
10:55 AM,78.1,75.2,91,30.11,-9999.0,Calm,Calm,-,N/A,,Unknown,0,2013-09-04 14:55:00
11:15 AM,82.6,75.7,80,30.11,-9999.0,Calm,Calm,-,N/A,,Clear,0,2013-09-04 15:15:00
11:35 AM,82.9,74.5,75,30.11,-9999.0,Calm,Calm,-,N/A,,Clear,0,2013-09-04 15:35:00
11:55 AM,84.6,74.7,72,30.11,-9999.0,Calm,Calm,-,N/A,,Clear,0,2013-09-04 15:55:00
12:15 PM,85.6,72.7,65,30.11,-9999.0,Calm,Calm,-,N/A,,Clear,0,2013-09-04 16:15:00
12:35 PM,87.1,72.9,62,30.11,-9999.0,SSW,3.5,-,N/A,,Clear,210,2013-09-04 16:35:00
12:55 PM,86.9,70.9,59,30.11,-9999.0,NNW,3.5,-,N/A,,Clear,330,2013-09-04 16:55:00
1:15 PM,88.0,71.4,58,30.11,-9999.0,NNW,3.5,-,N/A,,Clear,340,2013-09-04 17:15:00
1:35 PM,88.5,72.1,58,30.10,-9999.0,NW,3.5,-,N/A,,Clear,320,2013-09-04 17:35:00
1:55 PM,88.3,72.0,58,30.10,-9999.0,NW,4.6,-,N/A,,Scattered Clouds,310,2013-09-04 17:55:00
2:15 PM,87.6,71.8,59,30.10,-9999.0,WNW,5.8,-,N/A,,Scattered Clouds,300,2013-09-04 18:15:00
2:35 PM,87.1,73.2,63,30.10,-9999.0,NW,4.6,-,N/A,,Scattered Clouds,320,2013-09-04 18:35:00
2:55 PM,88.3,72.7,60,30.10,-9999.0,NNW,3.5,-,N/A,,Scattered Clouds,330,2013-09-04 18:55:00
3:15 PM,88.9,73.0,59,30.09,-9999.0,WNW,6.9,-,N/A,,Scattered Clouds,300,2013-09-04 19:15:00
3:35 PM,88.9,72.0,57,30.09,-9999.0,WNW,6.9,-,N/A,,Clear,290,2013-09-04 19:35:00
3:55 PM,88.2,71.1,57,30.08,-9999.0,NW,3.5,-,N/A,,Clear,310,2013-09-04 19:55:00
4:15 PM,87.1,72.3,61,30.08,-9999.0,WNW,4.6,-,N/A,,Clear,300,2013-09-04 20:15:00
4:35 PM,87.8,73.4,62,30.08,-9999.0,Calm,Calm,-,N/A,,Clear,0,2013-09-04 20:35:00
4:55 PM,88.0,72.1,59,30.07,-9999.0,WSW,4.6,-,N/A,,Clear,250,2013-09-04 20:55:00
5:15 PM,88.5,72.1,58,30.07,-9999.0,NW,3.5,-,N/A,,Clear,320,2013-09-04 21:15:00
5:35 PM,88.7,71.8,57,30.06,-9999.0,West,4.6,-,N/A,,Clear,280,2013-09-04 21:35:00
5:55 PM,85.5,72.5,65,30.06,-9999.0,West,3.5,-,N/A,,Clear,280,2013-09-04 21:55:00
6:15 PM,85.3,74.7,70,30.06,-9999.0,Calm,Calm,-,N/A,,Clear,0,2013-09-04 22:15:00
6:35 PM,83.1,76.3,80,30.06,-9999.0,Calm,Calm,-,N/A,,Clear,0,2013-09-04 22:35:00
6:55 PM,82.8,76.6,82,30.06,-9999.0,Calm,Calm,-,N/A,,Clear,0,2013-09-04 22:55:00
7:15 PM,81.7,77.0,86,30.07,-9999.0,Calm,Calm,-,N/A,,Clear,0,2013-09-04 23:15:00
7:35 PM,79.9,75.7,87,30.08,-9999.0,Calm,Calm,-,N/A,,Unknown,0,2013-09-04 23:35:00
7:55 PM,78.3,75.9,92,30.08,-9999.0,Calm,Calm,-,N/A,,Unknown,0,2013-09-04 23:55:00
8:15 PM,77.2,76.5,98,30.09,-9999.0,Calm,Calm,-,N/A,,Unknown,0,2013-09-05 00:15:00
8:35 PM,76.3,76.1,99,30.09,-9999.0,Calm,Calm,-,N/A,,Unknown,0,2013-09-05 00:35:00
8:55 PM,75.6,75.6,100,30.11,-9999.0,Calm,Calm,-,N/A,,Unknown,0,2013-09-05 00:55:00
9:15 PM,75.2,75.2,100,30.12,-9999.0,Calm,Calm,-,N/A,,Unknown,0,2013-09-05 01:15:00
9:35 PM,74.7,74.7,100,30.13,-9999.0,Calm,Calm,-,N/A,,Unknown,0,2013-09-05 01:35:00
9:55 PM,74.3,74.3,100,30.13,-9999.0,Calm,Calm,-,N/A,,Unknown,0,2013-09-05 01:55:00
10:15 PM,73.9,73.9,100,30.13,-9999.0,Calm,Calm,-,N/A,,Unknown,0,2013-09-05 02:15:00
10:35 PM,72.9,72.9,100,30.13,-9999.0,Calm,Calm,-,N/A,,Unknown,0,2013-09-05 02:35:00
10:55 PM,72.7,72.7,100,30.13,-9999.0,Calm,Calm,-,N/A,,Unknown,0,2013-09-05 02:55:00
11:15 PM,72.5,72.5,100,30.13,-9999.0,Calm,Calm,-,N/A,,Unknown,0,2013-09-05 03:15:00
11:35 PM,72.0,72.0,100,30.13,-9999.0,Calm,Calm,-,N/A,,Unknown,0,2013-09-05 03:35:00
11:55 PM,70.7,70.7,100,30.13,-9999.0,Calm,Calm,-,N/A,,Unknown,0,2013-09-05 03:55:00